Weather History for Danville, IL

Change the Weather History Date:

Sunday, March 2, 2014

  Actual Average (KLAF) Record (KLAF)
Temperature  
Mean Temperature 12 °F 35 °F  
Max Temperature 20 °F 44 °F 72 °F (1992)
Min Temperature 5 °F 27 °F -3 °F (1980)
Degree Days  
Heating Degree Days 52 30  
Month to date heating degree days 60  
Since 1 July heating degree days 4394  
Cooling Degree Days 0 0  
Month to date cooling degree days 0  
Year to date cooling degree days 0  
Moisture  
Dew Point 8 °F    
Average Humidity 80    
Maximum Humidity 91    
Minimum Humidity 71    
Precipitation  
Precipitation 0.02 in 0.08 in 0.88 in (1982)
Month to date precipitation 0.16  
Year to date precipitation 3.78  
Sea Level Pressure  
Sea Level Pressure 30.27 in    
Wind  
Wind Speed 14 mph (NNW)    
Max Wind Speed 17 mph    
Max Gust Speed 23 mph    
Visibility 8 miles    
Events Snow    
T = Trace of Precipitation, MM = Missing Value Source: NWS Daily Summary

Daily Weather History Graph

Daily Weather History Graph

Search for Another Location

Airport:

Trip Planner

Search our weather history database for the weather conditions in past years. The results will help you decide how hot, cold, wet, or windy it might be!

Date:

Astronomy

Mar. 02, 2014 Rise Set
Actual Time 6:22 AM CST 5:43 PM CST
Civil Twilight 5:55 AM CST 6:10 PM CST
Nautical Twilight 5:23 AM CST 6:41 PM CST
Astronomical Twilight 4:52 AM CST 7:13 PM CST
Moon 6:53 AM CST (3/2) 7:39 PM CST (3/2)
Length of Visible Light 12h 15m
Length of Day
11h 20m
Waxing Crescent, 3% of the Moon is Illuminated
Mar 2
Waxing Crescent
Mar 8
First Quarter
Mar 16
Full
Mar 23
Last Quarter
Mar 30
New

Hourly Weather History & Observations

Time (CST) Temp. Windchill Dew Point Humidity Pressure Visibility Wind Dir Wind Speed Gust Speed Precip Events Conditions
12:15 AM 20.3 °F 7.2 °F 17.6 °F 89% 30.23 in 10.0 mi North 13.8 mph - N/A   Overcast
12:35 AM 19.9 °F 6.7 °F 17.2 °F 89% 30.24 in 7.0 mi North 13.8 mph - N/A Snow Light Snow
12:55 AM 19.4 °F 7.2 °F 16.7 °F 89% 30.23 in 7.0 mi North 11.5 mph - N/A   Overcast
1:15 AM 19.2 °F 5.8 °F 16.5 °F 89% 30.22 in 4.0 mi NNE 13.8 mph - N/A Snow Light Snow
1:35 AM 18.9 °F 5.3 °F 16.2 °F 89% 30.22 in 4.0 mi NNE 13.8 mph - N/A Snow Light Snow
1:55 AM 18.7 °F 4.0 °F 16.3 °F 91% 30.21 in 4.0 mi NNE 16.1 mph - N/A Snow Light Snow
2:15 AM 18.5 °F 4.9 °F 16.0 °F 90% 30.21 in 2.5 mi North 13.8 mph 21.9 mph N/A Snow Light Snow
2:35 AM 18.5 °F 6.1 °F 15.8 °F 89% 30.22 in 4.0 mi North 11.5 mph - 0.01 in Snow Light Snow
2:55 AM 17.4 °F 2.9 °F 14.7 °F 89% 30.21 in 2.0 mi North 15.0 mph - 0.01 in Snow Light Snow
3:15 AM 17.1 °F 1.5 °F 14.5 °F 90% 30.23 in 1.5 mi North 17.3 mph - N/A Snow Light Snow
3:35 AM 16.5 °F 3.0 °F 14.0 °F 90% 30.23 in 1.8 mi North 12.7 mph - N/A Snow Light Snow
3:55 AM 15.8 °F 0.9 °F 13.3 °F 90% 30.23 in 1.8 mi North 15.0 mph - N/A Snow Light Snow
4:15 AM 15.4 °F 0.4 °F 12.9 °F 90% 30.23 in 1.2 mi North 15.0 mph - N/A Snow Light Snow
4:35 AM 15.3 °F 0.8 °F 12.7 °F 90% 30.22 in 3.0 mi North 13.8 mph - N/A Snow Light Snow
4:55 AM 15.3 °F 1.4 °F 12.6 °F 89% 30.22 in 4.0 mi North 12.7 mph - N/A Snow Light Snow
5:15 AM 15.3 °F 0.2 °F 12.4 °F 88% 30.24 in 5.0 mi North 15.0 mph - 0.01 in Snow Light Snow
5:40 AM 14.7 °F -1.1 °F 11.7 °F 88% 30.24 in 4.0 mi North 16.1 mph 23.0 mph 0.01 in Snow Light Snow
5:55 AM 14.5 °F -1.3 °F 11.7 °F 88% 30.25 in 4.0 mi North 16.1 mph - 0.01 in Snow Light Snow
6:15 AM 14.0 °F -0.2 °F 10.9 °F 88% 30.25 in 4.0 mi North 12.7 mph - N/A Snow Light Snow
6:35 AM 13.8 °F -1.1 °F 10.6 °F 87% 30.25 in 7.0 mi North 13.8 mph - N/A Snow Light Snow
6:55 AM 13.5 °F -1.5 °F 10.4 °F 88% 30.24 in 3.0 mi North 13.8 mph - N/A Snow Light Snow
7:15 AM 13.1 °F -3.1 °F 10.2 °F 88% 30.27 in 7.0 mi North 16.1 mph - N/A Snow Light Snow
7:35 AM 13.1 °F -2.6 °F 9.7 °F 86% 30.26 in 7.0 mi North 15.0 mph - N/A Snow Light Snow
7:55 AM 13.1 °F -2.6 °F 9.3 °F 85% 30.27 in 10.0 mi North 15.0 mph - N/A   Overcast
8:15 AM 12.9 °F -3.9 °F 8.8 °F 84% 30.28 in 10.0 mi North 17.3 mph - N/A   Overcast
8:35 AM 13.1 °F -3.7 °F 9.0 °F 84% 30.28 in 10.0 mi North 17.3 mph - N/A   Overcast
8:55 AM 13.1 °F -3.7 °F 8.8 °F 83% 30.29 in 10.0 mi North 17.3 mph - N/A   Overcast
9:15 AM 13.1 °F -3.7 °F 9.1 °F 84% 30.30 in 10.0 mi North 17.3 mph - N/A   Overcast
9:35 AM 13.1 °F -3.7 °F 8.6 °F 82% 30.29 in 10.0 mi North 17.3 mph - N/A   Overcast
9:55 AM 13.3 °F -1.8 °F 8.6 °F 82% 30.29 in 10.0 mi North 13.8 mph - N/A   Overcast
10:20 AM 14.0 °F -1.4 °F 9.1 °F 81% 30.29 in 10.0 mi North 15.0 mph - N/A   Overcast
10:35 AM 14.5 °F -0.7 °F 9.5 °F 80% 30.30 in 10.0 mi North 15.0 mph - N/A   Overcast
10:55 AM 15.1 °F 0.5 °F 9.7 °F 79% 30.29 in 10.0 mi NNW 13.8 mph - N/A   Overcast
11:15 AM 15.4 °F 0.4 °F 9.7 °F 78% 30.29 in 10.0 mi North 15.0 mph - N/A   Mostly Cloudy
11:35 AM 15.8 °F 0.9 °F 9.5 °F 76% 30.30 in 10.0 mi NNW 15.0 mph - N/A   Scattered Clouds
11:55 AM 15.8 °F -0.2 °F 9.7 °F 77% 30.29 in 10.0 mi North 17.3 mph - N/A   Mostly Cloudy
12:15 PM 14.9 °F -0.3 °F 9.0 °F 77% 30.28 in 10.0 mi NNW 15.0 mph - N/A   Overcast
12:35 PM 15.4 °F -0.1 °F 8.6 °F 74% 30.27 in 10.0 mi NNW 16.1 mph - N/A   Overcast
12:55 PM 15.6 °F 1.8 °F 8.6 °F 74% 30.27 in 10.0 mi NNW 12.7 mph - N/A   Overcast
1:15 PM 14.9 °F -0.3 °F 8.1 °F 74% 30.27 in 10.0 mi NNW 15.0 mph - N/A   Overcast
1:35 PM 14.4 °F -0.4 °F 7.7 °F 75% 30.27 in 10.0 mi NW 13.8 mph - N/A   Overcast
1:55 PM 13.8 °F -2.2 °F 7.7 °F 77% 30.26 in 10.0 mi NNW 16.1 mph - N/A   Overcast
2:15 PM 13.3 °F -1.1 °F 6.8 °F 75% 30.26 in 10.0 mi NNW 12.7 mph - N/A   Overcast
2:35 PM 13.6 °F -0.7 °F 7.0 °F 75% 30.27 in 10.0 mi NNW 12.7 mph - N/A   Overcast
3:00 PM 13.6 °F 0.0 °F 6.8 °F 74% 30.29 in 10.0 mi NNW 11.5 mph - N/A   Overcast
3:15 PM 13.5 °F -1.5 °F 6.3 °F 73% 30.29 in 10.0 mi NNW 13.8 mph - N/A   Overcast
3:35 PM 12.9 °F -1.6 °F 6.3 °F 75% 30.28 in 10.0 mi NNW 12.7 mph - N/A   Mostly Cloudy
3:55 PM 12.2 °F -3.1 °F 5.7 °F 75% 30.28 in 10.0 mi NNW 13.8 mph - N/A   Mostly Cloudy
4:15 PM 12.0 °F -4.0 °F 5.4 °F 75% 30.28 in 10.0 mi NNW 15.0 mph - N/A   Overcast
4:35 PM 11.7 °F -4.4 °F 4.5 °F 73% 30.29 in 10.0 mi NNW 15.0 mph - N/A   Mostly Cloudy
4:55 PM 11.1 °F -3.9 °F 4.3 °F 74% 30.28 in 10.0 mi NW 12.7 mph - N/A   Overcast
5:15 PM 10.4 °F -6.0 °F 3.7 °F 74% 30.28 in 10.0 mi NNW 15.0 mph - N/A   Overcast
5:35 PM 9.7 °F -7.5 °F 3.4 °F 76% 30.28 in 10.0 mi NNW 16.1 mph - N/A   Scattered Clouds
5:55 PM 9.3 °F -7.4 °F 2.8 °F 75% 30.29 in 10.0 mi NNW 15.0 mph - N/A   Clear
6:15 PM 9.1 °F -6.4 °F 3.2 °F 77% 30.28 in 10.0 mi NNW 12.7 mph - N/A   Clear
6:35 PM 9.0 °F -6.6 °F 2.5 °F 75% 30.31 in 10.0 mi NNW 12.7 mph 17.3 mph N/A   Scattered Clouds
6:55 PM 8.6 °F -9.5 °F 2.1 °F 75% 30.31 in 10.0 mi NNW 17.3 mph - N/A   Clear
7:15 PM 8.6 °F -8.3 °F 2.1 °F 75% 30.32 in 10.0 mi NW 15.0 mph - N/A   Clear
7:35 PM 8.6 °F -8.3 °F 2.3 °F 76% 30.32 in 10.0 mi NNW 15.0 mph - N/A   Clear
7:55 PM 8.2 °F -8.8 °F 1.9 °F 76% 30.30 in 10.0 mi NNW 15.0 mph - N/A   Clear
8:15 PM 8.1 °F -9.0 °F 1.8 °F 75% 30.30 in 10.0 mi NNW 15.0 mph - N/A   Clear
8:35 PM 7.7 °F -8.9 °F 1.4 °F 75% 30.31 in 10.0 mi NNW 13.8 mph - N/A   Clear
8:55 PM 7.3 °F -10.0 °F 0.5 °F 74% 30.32 in 10.0 mi NNW 15.0 mph - N/A   Clear
9:15 PM 7.2 °F -8.9 °F 0.5 °F 74% 30.34 in 10.0 mi NNW 12.7 mph - N/A   Clear
9:35 PM 6.8 °F -10.0 °F 0.1 °F 74% 30.31 in 10.0 mi North 13.8 mph - N/A   Clear
9:55 PM 6.6 °F -10.2 °F 0.1 °F 75% 30.31 in 10.0 mi NNW 13.8 mph - N/A   Clear
10:15 PM 6.4 °F -11.1 °F -0.4 °F 74% 30.33 in 10.0 mi NNW 15.0 mph - N/A   Clear
10:35 PM 6.1 °F -10.2 °F -1.1 °F 72% 30.31 in 10.0 mi North 12.7 mph - N/A   Scattered Clouds
10:55 PM 5.9 °F -11.8 °F -0.9 °F 73% 30.30 in 10.0 mi North 15.0 mph - N/A   Mostly Cloudy
11:15 PM 6.1 °F -10.9 °F -1.1 °F 72% 30.32 in 10.0 mi North 13.8 mph - N/A   Overcast
11:35 PM 6.4 °F -11.7 °F -0.9 °F 72% 30.32 in 10.0 mi North 16.1 mph - N/A   Overcast
11:55 PM 6.3 °F -12.0 °F -1.3 °F 71% 30.31 in 10.0 mi North 16.1 mph 21.9 mph N/A   Mostly Cloudy